Location: Al Mulaqqa?ah
(24.1833°N, 32.8833°E)
Time: 21:09:28
(UTC+00:00)

CZ-4B R/B - Pass Details

Date: 26 September 2021
Orbit: 809 x 881 km, 99.1° (Epoch: 25 October)

Event Time Altitude Azimuth Distance (km) Brightness Sun altitude
Rises 16:10:52 0° 169° (S) 3,346 6.2 -7.7°
Reaches altitude 10° 16:13:11 10° 171° (S) 2,425 5.5 -8.3°
Maximum altitude 16:18:33 78° 257° (WSW) 860 3.4 -9.5°
Drops below altitude 10° 16:24:04 10° 344° (NNW) 2,482 5.9 -10.7°
Sets 16:26:28 0° 346° (NNW) 3,431 6.6 -11.3°
